Greenville, ME

6:05 AM EST on November 22, 2019 (GMT -0500)
Greenville

Weather History for KGNR - September, 2019

Change the Weather History Date:

Friday, September 20, 2019

  Actual Average (WUND) Record (WUND)
Temperature  
Mean Temperature 60 °F -  
Max Temperature 75 °F - - (-1)
Min Temperature 48 °F - - (-1)
Degree Days  
Heating Degree Days 4    
Growing Degree Days 10 (Base 50)    
Moisture  
Dew Point 49 °F    
Average Humidity 63    
Maximum Humidity 77    
Minimum Humidity 44    
Precipitation  
Precipitation 0.00 in - - ()
Sea Level Pressure  
Sea Level Pressure 30.11 in    
Wind  
Wind Speed 6 mph ()    
Max Wind Speed 14 mph    
Max Gust Speed 23 mph    
Averages and records for this station are not official NWS values.
T = Trace of Precipitation, MM = Missing Value Source: Averaged Metar Reports

Daily Weather History Graph

Daily Weather History Graph

Search for Another Location

Airport or City:

Astronomy

Sep. 20, 2019 Rise Set
Actual Time 6:22 AM EDT 6:40 PM EDT
Civil Twilight 5:52 AM EDT 7:09 PM EDT
Nautical Twilight 5:18 AM EDT 7:44 PM EDT
Astronomical Twilight 4:42 AM EDT 8:20 PM EDT
Moon 10:10 PM EDT (9/20) 12:40 PM EDT (9/20)
Length of Visible Light 13h 16m
Length of Day
12h 17m
Waning Gibbous, 65% of the Moon is Illuminated
Sep 20
Waning Gibbous
Sep 21
Last Quarter
Sep 28
New
Oct 5
First Quarter
Oct 13
Full

Hourly Weather History & Observations

Time (EDT) Temp. Dew Point Humidity Pressure Visibility Wind Dir Wind Speed Gust Speed Precip Events Conditions
12:56 AM 50.0 °F 42.1 °F 74% 30.18 in - Calm Calm - N/A   Unknown
1:56 AM 48.9 °F 42.1 °F 77% 30.17 in - Calm Calm - N/A   Unknown
2:56 AM 50.0 °F 43.0 °F 77% 30.16 in - NNE 6.9 mph - N/A   Unknown
3:56 AM 52.0 °F 43.0 °F 71% 30.15 in - North 6.9 mph - N/A   Unknown
4:56 AM 53.1 °F 42.1 °F 66% 30.14 in - NNE 8.1 mph - N/A   Unknown
5:56 AM 52.0 °F 44.1 °F 74% 30.16 in - NNE 8.1 mph - N/A   Unknown
6:56 AM 54.0 °F 44.1 °F 69% 30.17 in - NE 6.9 mph - N/A   Unknown
7:56 AM 57.9 °F 45.0 °F 62% 30.16 in - NE 5.8 mph - N/A   Unknown
8:56 AM 60.1 °F 46.0 °F 60% 30.16 in - NW 13.8 mph 23.0 mph N/A   Unknown
9:56 AM 63.0 °F 48.0 °F 58% 30.15 in - NNW 11.5 mph - N/A   Unknown
10:56 AM 63.0 °F 50.0 °F 63% 30.14 in - NNW 9.2 mph - N/A   Unknown
11:56 AM 64.9 °F 50.0 °F 58% 30.11 in - Variable 5.8 mph - N/A   Unknown
12:56 PM 69.1 °F 51.1 °F 53% 30.09 in - NW 11.5 mph - N/A   Unknown
1:56 PM 72.0 °F 52.0 °F 49% 30.06 in - NW 12.7 mph 19.6 mph N/A   Unknown
2:56 PM 73.0 °F 51.1 °F 46% 30.04 in - NW 9.2 mph 17.3 mph N/A   Unknown
3:56 PM 73.9 °F 51.1 °F 45% 30.03 in - NW 9.2 mph 18.4 mph N/A   Unknown
4:56 PM 73.0 °F 50.0 °F 44% 30.04 in - WNW 12.7 mph - N/A   Unknown
5:56 PM 68.0 °F 53.1 °F 59% 30.04 in - NW 10.4 mph - N/A   Unknown
6:56 PM 64.9 °F 53.1 °F 65% 30.05 in - NW 6.9 mph - N/A   Unknown
7:56 PM 64.9 °F 53.1 °F 65% 30.05 in - NW 8.1 mph - N/A   Unknown
8:56 PM 64.0 °F 52.0 °F 65% 30.06 in - NW 12.7 mph - N/A   Unknown
9:56 PM 62.1 °F 52.0 °F 70% 30.07 in - NW 11.5 mph - N/A   Unknown
10:56 PM 62.1 °F 53.1 °F 72% 30.08 in - NW 11.5 mph - N/A   Unknown
11:00 PM - - N/A% - - North - - N/A   Unknown
11:56 PM 61.0 °F 53.1 °F 75% 30.08 in - NNW 8.1 mph - N/A   Unknown